www.pogodaiklimat.ru

Погода и климат >> Архив погоды >> Россия >> Приморский край >> Кавалерово


ПОГОДА в Кавалерово

  • Прогноз погоды в Кавалерово
  • Монитор погоды в Кавалерово

АРХИВ ПОГОДЫ в Кавалерово

Время (UTC), дата Ветер
(напр.,м/с)
 
Видим.   Явления Облачность Т
(С)
Тd
(С)
f
(%)
Тe
(С)
Тes
(С)
Комфортность P
(гПа)
Po
(гПа)
Тmin
(С)
Tmax
(С)
R
(мм)
R24
(мм)
S
(см)
06 13.05 ЮВ 5 50 км 2 балла +23.7 +3.0 26 +23 +28 комфорт 1012.9 989.3
09 13.05 ЮВ 3
{10}
50 км 10/0
[Ac lent Ci]
+17.5 +1.4 34 +18 +18 1012.4 988.6 +24.0
12 13.05 В 3 50 км 10/0
[Ac trans Ci fib]
+9.7 +3.2 64 +8 +8 1014.9 990.4
15 13.05 СЗ 1 50 км 10 баллов +4.1 +2.1 87 +3 +3 1017.4 992.0
18 13.05 СЗ 1 50 км 10 баллов +1.0 -0.2 92 -1 -1 1016.3 990.7
21 13.05 С 1 50 км 10/0
[Ci fib]
+3.3 +1.9 91 +2 +3 1015.8 990.7 -0.7
00 14.05 штиль 0 50 км 10/5 1000 м
[Cu hum Ci fib]
+14.5 +1.8 42 +14 +21 1014.5 990.4
03 14.05 В 3 50 км 10 баллов +22.9 -5.1 15 +21 +21 комфорт 1013.0 989.3
06 14.05 ЮВ 3 50 км 7 баллов +23.8 -3.5 16 +22 +25 комфорт 1011.6 988.0
09 14.05 ЮВ 3
{11}
50 км 4/3 1000 м
[Sc Ci fib]
+19.7 -1.8 23 +20 +21 1011.4 987.8 +24.1
12 14.05 СЗ 2 50 км 1/0
[Ci fib]
+7.4 +1.2 65 +6 +6 1013.8 989.1
18 14.05 З 2 50 км ясно +0.8 -0.3 92 -3 -3 1017.7 992.0
21 14.05 штиль 0 50 км ясно +2.7 +1.0 89 +2 +3 1016.0 990.9 -1.6
00 15.05 ЮВ 2 50 км 3/3 1000 м
[Cu hum]
+16.1 +5.3 49 +16 +24 1013.9 990.0
03 15.05 ЮВ 3 50 км 2 балла +23.8 +5.6 31 +24 +36 комфорт 1012.9 989.3
06 15.05 ЮВ 4 50 км в посл. час ливневой дождь 6 баллов +21.7 +8.9 44 +23 +26 комфорт 1010.4 986.7
09 15.05 ЮВ 3 50 км ясно +18.8 +8.2 50 +19 +20 1011.9 988.0 +25.5 0.0
12 15.05 ЮВ 3 50 км ясно +11.0 +7.7 80 +9 +9 1013.9 989.3
15 15.05 ЮВ 2 4000 м дымка ясно +6.8 +6.1 95 +4 +4 1014.3 989.3
18 15.05 штиль 0 200 м туман н/о +6.2 +6.2 100 +5 1014.4 989.3
21 15.05 С 1 200 м туман ?/? +5.7 +5.7 100 +4 +4 1013.5 988.8 +5.7
00 16.05 ЮВ 4 2000 м в посл. час туман 10/10 200 м
[St]
+7.5 +6.7 95 +4 +4 1014.2 989.6
03 16.05 ЮВ 4 50 км 6 баллов +16.2 +8.2 59 +16 +21 1013.5 989.3
06 16.05 ЮВ 5 50 км 10 баллов +13.3 +8.8 74 +11 +11 1013.7 989.3
09 16.05 ЮВ 3 50 км 10/10 600 м
[Sc]
+9.7 +7.5 86 +7 +7 1014.1 989.3 +17.7
12 16.05 ЮВ 3 50 км 10/10 200 м
[St]
+8.5 +7.3 92 +6 +6 1014.9 990.4
15 16.05 ЮВ 1 50 км 10 баллов +8.2 +7.4 95 +7 +7 1017.0 992.0
18 16.05 ЮВ 2 4000 м дымка 10 баллов +8.1 +7.5 96 +6 +6 1015.6 990.7
21 16.05 ЮВ 2 1000 м дымка 10/10 200 м
[St]
+8.1 +7.5 96 +6 +6 1015.0 990.4 +8.0 0.6
00 17.05 Ю 2 2000 м дымка 10/10 300 м
[St]
+10.4 +8.7 89 +9 +9 1015.8 991.4
03 17.05 ЮВ 3 50 км 10 баллов +17.5 +10.6 64 +18 +18 1014.8 990.7
06 17.05 ЮВ 5 50 км 7 баллов +22.0 +10.8 49 +24 +26 комфорт 1011.7 988.0
09 17.05 ЮВ 4 50 км 8/0
[Ci fib]
+17.5 +9.6 60 +17 +18 1013.4 989.3 +22.2
12 17.05 ЮВ 1 50 км 10/0
[Ci sp]
+11.8 +9.1 84 +12 +12 1013.9 989.7
15 17.05 штиль 0 4000 м дымка 5 баллов +6.1 +5.2 94 +5 +5 1017.2 992.0
18 17.05 штиль 0 200 м туман н/о +5.9 +5.9 100 +5 1017.2 992.0
21 17.05 СЗ 1 1000 м дымка {туман} 8/0
[Ci sp]
+5.5 +5.0 97 +4 +5 1016.8 991.9 +3.8
00 18.05 ЮВ 1 50 км {туман} 10/0
[Ci fib]
+17.3 +9.3 59 +18 +29 1014.6 990.8
03 18.05 В 3 50 км 10 баллов +23.4 +10.4 44 +25 +25 комфорт 1014.3 990.7
06 18.05 ЮВ 4 50 км 7 баллов +25.7 +10.3 38 +27 +29 жарко 1012.7 989.3
09 18.05 ЮЗ 3 50 км 6/1 1000 м
[Cu hum Ci fib]
+27.1 +6.5 27 +26 +27 жарко 1011.3 988.0 +27.5
12 18.05 СЗ 2 50 км 8/0
[Ci fib]
+13.3 +9.2 76 +13 +13 1013.3 989.2
15 18.05 СЗ 2 50 км 7 баллов +8.7 +7.6 93 +7 +7 1016.9 992.0
18 18.05 СЗ 1 50 км 6 баллов +5.7 +5.0 95 +4 +4 1017.2 992.0
21 18.05 СЗ 1 50 км 8/0
[Ci fib]
+6.8 +6.1 95 +6 +7 1015.7 991.0 +4.5
00 19.05 Ю 1 50 км 4/0
[Ci sp]
+21.0 +9.4 47 +24 +36 комфорт 1013.3 989.8
03 19.05 В 4 50 км 7 баллов +26.7 +7.2 29 +26 +30 жарко 1011.3 988.0
06 19.05 ЮВ 5 50 км 7 баллов +27.8 +8.1 29 +28 +29 жарко 1009.9 986.7
09 19.05 ЮВ 5 50 км 10/0
[Ci sp]
+24.6 +8.5 36 +25 +25 комфорт 1010.1 986.7 +29.1
12 19.05 ЮВ 3 50 км 10/0
[Ac trans Ci sp]
+19.7 +7.4 45 +21 +21 комфорт 1010.8 987.3
15 19.05 ЮВ 2 50 км 10 баллов +15.9 +9.1 64 +16 +16 1010.8 986.7
18 19.05 ЮВ 3 50 км 10 баллов +14.6 +10.4 76 +14 +14 1008.2 984.0
21 19.05 В 5 50 км 10/10 600 м
[Sc]
+13.3 +9.8 79 +11 +11 1004.0 980.2 +13.3
00 20.05 ЮВ 3 4000 м слаб. дождь 10/10 300 м
[Frnb Ns]
+11.4 +10.1 92 +9 +9 1002.4 978.5 +11.1
03 20.05 ЮВ 5
{10}
4000 м слаб. дождь 10/10 300 м
[Frnb Ns]
+12.8 +11.3 91 +11 +11 999.8 976.0

 

Местоположение метеостанции Кавалерово (Приморский край, Россия): широта 44.25 долгота 135.00 высота над уровнем моря 206 м.

В архиве по умолчанию представлена погода в Кавалерово за последнюю неделю. Архивные данные за месяц целиком и за предыдущие месяцы, начиная с января 2011 года, Вы можете получить, выбрав интересующий диапазон дат из раскрывающегося списка и нажав кнопку "Ввод!".


*Определитесь, кто Вы:
робот инопланетянин человек

Внимание! Время в таблицах - всемирное. Для получения местного времени необходимо прибавить поправку, которая равна 10 ч.

Смотрите также архив погоды в соседних городах и на ближайших метеорологических станциях:

Погода в Богополе (Приморский край, Россия) (32 км)
Погода в Ольге (Приморский край, Россия) (61 км)
Погода в Рудной Пристани (Приморский край, Россия) (65 км)
Погода в Дальнегорске (Приморский край, Россия) (90 км)
Погода в Чугуевке (Приморский край, Россия) (96 км)
Погода в Лучегорске (Приморский край, Россия) (99 км)
Погода в Лазо (Приморский край, Россия) (135 км)
Погода в Мельничном (Приморский край, Россия) (139 км)
Погода в Малиново (Приморский край, Россия) (145 км)
Погода в Тернее (Приморский край, Россия) (152 км)

Пояснения к столбцам:

Ветер - указаны скорость ветра в м/с - средняя за 10 мин, порывы в срок и между сроками (в фигурных скобках) и направление, откуда дует ветер: С - северный, СВ - северо-восточный, В - восточный, ЮВ - юго-восточный, Ю - южный, ЮЗ - юго-западный, З - западный, СЗ - северо-западный.
Видимость - горизонтальная дальность видимости в метрах или километрах. При видимости от 1 до 10 км при отсутствии осадков обычно наблюдается дымка, при ухудшении видимости до 1 км и менее - туман. В сухую погоду видимость может ухудшаться дымом, пылью или мглою.
Явления - указаны атмосферные явления, наблюдавшиеся в срок или в последний час перед сроком; фигурными скобками обозначены явления, наблюдавшиеся между сроками (за 1-3 часа до срока); квадратными скобками обозначены град или гололедные отложения с указанием их диаметра в мм.
Облачность - указаны через наклонную черту общая и нижняя облачность в баллах и высота нижней границы облаков в метрах; квадратными скобками обозначены формы облаков: Ci - перистые, Cs - перисто-слоистые, Cc - перисто-кучевые, Ac - высококучевые, As - высокослоистые, Sc - слоисто-кучевые, Ns - слоисто-дождевые, Cu - кучевые, Cb - кучево-дождевые. Подробнее классификацию облаков см. в Атласе облаков (PDF).
T - Температура воздуха - температура, измеренная на высоте 2 м над землей.
Td - Температура точки росы - температура, при понижении до которой содержащийся в воздухе водяной пар достигнет насыщения.
f - Относительная влажность воздуха - влажноcть воздуха, измеренная на высоте 2 м над землей.
Te - Эффективная температура - температура, которую ощущает одетый по сезону человек в тени. Характеристика душности погоды. При расчете учитывается влияние влажности воздуха и скорости ветра на теплоощущения человека.
Tes - Эффективная температура на солнце - температура, которую ощущает человек, с поправкой на солнечный нагрев. Характеристика знойности погоды. Зависит от высоты солнца над горизонтом, облачности и скорости ветра. Ночью, в пасмурную погоду, а также при ветре 12 м/с и более поправка равна нулю.
P - Атмосферное давление - приведенное к уровню моря атмосферное давление.
Po - Атмосферное давление - измеренное на уровне метеостанции атмосферное давление.
Tmin - Минимальная температура - минимум температуры воздуха на высоте 2 м над землей.
Tmax - Максимальная температура - максимум температуры воздуха на высоте 2 м над землей.
R - Количество осадков - Количество выпавших осадков за период времени, мм. При наведении курсора мыши на число - период времени, за который выпало указанное количество осадков.
R24 - Количество осадков - Количество выпавших осадков за 24 часа, мм.
S - Снежный покров - Высота снежного покрова, см. При наведении курсора мыши на число - состояние снежного покрова и степень покрытия местности в баллах.